This demonstration page uses our WeatherBlox Daily Observations layout. Learn more.

Left ArrowRight Arrow

38.88101, -77.10428

Hourly Observations for July 12, 2021

Temp ( °F °C ) Dew Point ( °F °C ) Humidity (%) Winds ( mph kmh ) Pressure ( in mb ) Visibility ( mi km ) Precip ( " mm )
12:52 am 00:52 Partly Cloudy 80 26.7 72 22.2 76 76 S 10 17 30.03 1017 10 16 N/A
1:52 am 01:52 Partly Cloudy 80 26.7 73 22.8 79 79 S 10 17 30.03 1017 10 16 N/A
2:52 am 02:52 Partly Cloudy 79 26.1 72 22.2 79 79 SSW 9 15 30.04 1017 10 16 N/A
3:52 am 03:52 Mostly Cloudy 78 25.6 72 22.2 82 82 SSW 8 13 30.04 1017 10 16 N/A
4:52 am 04:52 Mostly Cloudy 78 25.6 72 22.2 82 82 SW 8 13 30.04 1017 10 16 N/A
5:21 am 05:21 Mostly Cloudy 78 25.6 73 22.8 85 85 SSW 8 13 30.04 1017 10 16 N/A
5:30 am 05:30 Mostly Cloudy 78 25.6 73 22.8 85 85 S 7 11 30.05 1018 10 16 N/A
5:52 am 05:52 Mostly Cloudy 78 25.6 73 22.8 85 85 S 8 13 30.05 1018 10 16 N/A
6:52 am 06:52 Mostly Cloudy 78 25.6 73 22.8 85 85 S 8 13 30.06 1018 10 16 N/A
7:52 am 07:52 Cloudy 79 26.1 73 22.8 82 82 SW 10 17 30.08 1019 10 16 N/A
8:52 am 08:52 Mostly Cloudy 80 26.7 73 22.8 79 79 SSW 8 13 30.10 1019 10 16 N/A
9:31 am 09:31 Cloudy 80 26.7 73 22.8 79 79 SSW 7 11 30.11 1020 10 16 N/A
9:52 am 09:52 Mostly Cloudy 81 27.2 73 22.8 77 77 SSW 7 11 30.11 1020 10 16 N/A
10:52 am 10:52 Mostly Cloudy 85 29.4 74 23.3 70 70 VRB 6 9 30.11 1020 10 16 N/A
11:08 am 11:08 Partly Cloudy 85 29.4 74 23.3 70 70 S 7 11 30.12 1020 10 16 N/A
11:52 am 11:52 Partly Cloudy 86 30 75 23.9 70 70 S 9 15 30.11 1020 10 16 N/A
12:52 pm 12:52 Partly Cloudy 88 31.1 76 24.4 68 68 S 12 19 30.11 1020 10 16 N/A
1:52 pm 13:52 Partly Cloudy 90 32.2 76 24.4 63 63 SSE 12 19 30.10 1019 10 16 N/A
2:52 pm 14:52 Partly Cloudy 90 32.2 75 23.9 62 62 SSE 12 19 30.09 1019 10 16 N/A
3:52 pm 15:52 Mostly Cloudy 91 32.8 75 23.9 59 59 S 13 20 30.08 1019 10 16 N/A
4:52 pm 16:52 Mostly Cloudy 91 32.8 76 24.4 61 61 S 17 28 30.08 1019 10 16 N/A
5:52 pm 17:52 Mostly Cloudy 91 32.8 74 23.3 57 57 S 14 22 30.07 1018 10 16 N/A
6:52 pm 18:52 Partly Cloudy 89 31.7 73 22.8 59 59 SSW 12 19 30.08 1019 10 16 N/A
7:52 pm 19:52 Sunny 88 31.1 75 23.9 66 66 S 10 17 30.07 1018 10 16 N/A
8:52 pm 20:52 Partly Cloudy 87 30.6 73 22.8 63 63 SSW 9 15 30.11 1020 10 16 N/A
9:52 pm 21:52 Partly Cloudy 86 30 75 23.9 70 70 S 10 17 30.14 1021 10 16 N/A
10:52 pm 22:52 Mostly Cloudy 85 29.4 72 22.2 65 65 S 10 17 30.13 1020 10 16 N/A
11:52 pm 23:52 Mostly Cloudy 84 28.9 71 21.7 65 65 S 9 15 30.13 1020 10 16 N/A

Powered by AerisWeather